Simultaneous Nadir Overpasses (SNOs) Predictions

Prediction of SNOs between METOP-C and LANDSAT-8 Satellite Orbit:

Table of predicted SNOs for the next 14.0 days since TLE Epoch: 1/16/2021
Index Date (METOP-C) Time (METOP-C) Lat,Lon (METOP-C) SZA (METOP-C ) Date (LANDSAT-8) Time (LANDSAT-8) Lat,Lon (LANDSAT-8) SZA (LANDSAT-8 ) Distance(km) Time Diff (sec)
1 01/18/2021 03:30:16 81.08, 166.42 103.20 01/18/2021 03:30:34 81.07, 166.37 103.20 0.99 18
2 01/18/2021 04:20:54 -81.12, -25.15 76.68 01/18/2021 04:19:59 -81.11, -25.34 76.72 3.14 55
3 01/20/2021 23:04:38 81.09,-126.84 102.63 01/20/2021 23:04:47 81.08,-126.98 102.61 2.46 9
4 01/20/2021 23:55:18 -81.10, 40.91 77.34 01/20/2021 23:54:13 -81.11, 40.97 77.35 1.12 65
5 01/23/2021 17:48:22 -81.07, 131.71 78.10 01/23/2021 17:49:35 -81.07, 131.60 78.08 1.91 73
6 01/23/2021 18:39:02 81.07, -60.86 101.91 01/23/2021 18:39:01 81.07, -60.73 101.92 2.29 1
7 01/23/2021 19:29:33 -81.20, 110.36 77.65 01/23/2021 19:28:19 -81.28, 110.19 77.63 9.09 74
8 01/26/2021 13:22:45 -81.05,-162.26 78.85 01/26/2021 13:23:48 -81.06,-162.16 78.82 1.64 63
9 01/26/2021 14:13:23 81.08, 5.85 101.24 01/26/2021 14:13:13 81.08, 5.85 101.23 0.23 10
10 01/29/2021 08:57:07 -81.07, -95.50 79.56 01/29/2021 08:58:01 -81.06, -95.60 79.55 1.83 54



Historial Predications of SNOs between METOP-C and LANDSAT-8
